Tracking 19199 objects as of 25-Jun-2018
HD Live streaming from Space Station
objects crossing your sky now

BIRD BB

Track BIRD BB now!
10-day predictions
BIRD BB is classified as:


NORAD ID: 42823
Int'l Code: 1998-067MX
Perigee: 368.6 km
Apogee: 375.4 km
Inclination: 51.6 °
Period: 91.8 minutes
Semi major axis: 6743 km
RCS: Unknown
Launch date: November 20, 1998
Source: (BGD)
Launch site: TYURATAM MISSILE AND SPACE COMPLEX (TTMTR)
Uplink (MHz):
Downlink (MHz): 437.375
Beacon (MHz): 437.372
Mode: 1k2AFSK 9k6GMSK CW
Call sign: JG6YJS
Status: Active

aabbcc
Your satellite tracking list
Your tracking list is empty




NASA's NSSDC Master Catalog

Two Line Element Set (TLE):
1 42823U 98067MX  18175.58481698 +.00027811 +00000-0 +25095-3 0  9993
2 42823 051.6359 323.6610 0005006 218.9935 141.0701 15.67913654055011
Source of the keplerian elements: AFSPC